• In Uzbekistan
  • List of Countries
  • For 7 days
  • Water Temperature
  • Satellite Maps
  • Weather Map
  • Weather Widgets
  • user-avatar
    Login

    Hourly Weather Chien

    Today, 19 January, Saturday

    Time Temperature Precipitation Wind Pressure Humidity
    00:00 +25°C° 0 mm 1 mps 741 mmHg 94%
    01:00 +25°C° 0 mm 1 mps 740 mmHg 96%
    02:00 +25°C° 0 mm 1 mps 740 mmHg 97%
    03:00 +25°C° 0 mm 1 mps 740 mmHg 95%
    04:00 +25°C° 0 mm 1 mps 740 mmHg 93%
    05:00 +26°C° 0 mm 1 mps 740 mmHg 90%
    06:00 +27°C° 0 mm 1 mps 741 mmHg 85%
    07:00 +28°C° 0 mm 1 mps 741 mmHg 79%
    08:00 +29°C° 0 mm 1 mps 742 mmHg 73%
    09:00 +31°C° 0 mm 1 mps 742 mmHg 65%
    10:00 +33°C° 0 mm 1 mps 742 mmHg 57%
    11:00 +35°C° 0 mm 1 mps 742 mmHg 49%
    12:00 +35°C° 0.5 mm 1 mps 741 mmHg 52%
    13:00 +34°C° 0.5 mm 1 mps 740 mmHg 54%
    14:00 +33°C° 0.5 mm 1 mps 739 mmHg 56%
    15:00 +32°C° 1.4 mm 1 mps 739 mmHg 65%
    16:00 +30°C° 1.4 mm 1 mps 739 mmHg 73%
    17:00 +29°C° 1.4 mm 1 mps 739 mmHg 81%
    18:00 +28°C° 0.4 mm 1 mps 740 mmHg 84%
    19:00 +27°C° 0.4 mm 1 mps 740 mmHg 87%
    20:00 +26°C° 0.4 mm 1 mps 741 mmHg 90%
    21:00 +26°C° 0.1 mm 1 mps 741 mmHg 91%
    22:00 +25°C° 0.1 mm 1 mps 741 mmHg 93%
    23:00 +25°C° 0.1 mm 1 mps 741 mmHg 94%

    Tomorrow, 20 January, Sunday

    Time Temperature Precipitation Wind Pressure Humidity
    00:00 +25°C° 0.2 mm 1 mps 741 mmHg 95%
    01:00 +25°C° 0.2 mm 1 mps 740 mmHg 96%
    02:00 +23°C° 0.2 mm 0 mps 740 mmHg 97%
    03:00 +22°C° 0.2 mm 0 mps 740 mmHg 97%
    04:00 +22°C° 0.2 mm 0 mps 740 mmHg 98%
    05:00 +22°C° 0.2 mm 0 mps 740 mmHg 98%
    06:00 +24°C° 0.3 mm 0 mps 741 mmHg 91%
    07:00 +25°C° 0.3 mm 0 mps 741 mmHg 84%
    08:00 +27°C° 0.3 mm 0 mps 742 mmHg 77%
    09:00 +28°C° 1 mm 0 mps 742 mmHg 72%
    10:00 +30°C° 1 mm 0 mps 742 mmHg 66%
    11:00 +32°C° 1 mm 0 mps 742 mmHg 60%
    12:00 +32°C° 0.5 mm 0 mps 741 mmHg 55%
    13:00 +33°C° 0.5 mm 0 mps 740 mmHg 51%
    14:00 +34°C° 0.5 mm 0 mps 739 mmHg 47%
    15:00 +33°C° 0.1 mm 0 mps 739 mmHg 51%
    16:00 +33°C° 0.1 mm 1 mps 739 mmHg 56%
    17:00 +32°C° 0.1 mm 1 mps 740 mmHg 60%
    18:00 +30°C° 0 mm 1 mps 740 mmHg 67%
    19:00 +29°C° 0 mm 1 mps 741 mmHg 74%
    20:00 +27°C° 0 mm 2 mps 741 mmHg 82%
    21:00 +27°C° 0 mm 1 mps 741 mmHg 85%
    22:00 +26°C° 0 mm 1 mps 741 mmHg 89%
    23:00 +24°C° 0 mm 0 mps 741 mmHg 92%

    Day after tomorrow, 21 January, Monday

    Time Temperature Precipitation Wind Pressure Humidity
    00:00 +23°C° 0 mm 0 mps 741 mmHg 94%
    01:00 +25°C° 0 mm 1 mps 741 mmHg 96%
    02:00 +25°C° 0 mm 1 mps 740 mmHg 97%
    03:00 +25°C° 0 mm 1 mps 740 mmHg 96%
    04:00 +25°C° 0 mm 1 mps 740 mmHg 95%
    05:00 +25°C° 0 mm 1 mps 740 mmHg 94%
    06:00 +26°C° 0.1 mm 1 mps 741 mmHg 93%
    07:00 +26°C° 0.1 mm 1 mps 741 mmHg 91%
    08:00 +26°C° 0.1 mm 1 mps 742 mmHg 89%
    09:00 +28°C° 0.1 mm 1 mps 742 mmHg 82%
    10:00 +29°C° 0.1 mm 1 mps 742 mmHg 76%
    11:00 +30°C° 0.1 mm 1 mps 741 mmHg 69%
    12:00 +32°C° 0 mm 1 mps 740 mmHg 61%
    13:00 +33°C° 0 mm 1 mps 740 mmHg 54%
    14:00 +35°C° 0 mm 1 mps 739 mmHg 46%
    15:00 +34°C° 0.1 mm 1 mps 739 mmHg 50%
    16:00 +33°C° 0.1 mm 1 mps 739 mmHg 54%
    17:00 +32°C° 0.1 mm 1 mps 739 mmHg 58%
    18:00 +30°C° 0 mm 1 mps 740 mmHg 66%
    19:00 +28°C° 0 mm 2 mps 740 mmHg 75%
    20:00 +27°C° 0 mm 2 mps 741 mmHg 84%
    21:00 +26°C° 0 mm 1 mps 741 mmHg 87%
    22:00 +26°C° 0 mm 1 mps 741 mmHg 90%
    23:00 +25°C° 0 mm 1 mps 741 mmHg 93%

    22 January, Tuesday

    Time Temperature Precipitation Wind Pressure Humidity
    00:00 +25°C° 0 mm 1 mps 741 mmHg 94%
    01:00 +25°C° 0 mm 1 mps 740 mmHg 95%
    02:00 +25°C° 0 mm 1 mps 740 mmHg 95%
    03:00 +25°C° 0 mm 1 mps 740 mmHg 96%
    04:00 +24°C° 0 mm 1 mps 740 mmHg 98%
    05:00 +22°C° 0 mm 0 mps 740 mmHg 99%
    06:00 +25°C° 0 mm 1 mps 741 mmHg 92%
    07:00 +27°C° 0 mm 1 mps 741 mmHg 86%
    08:00 +28°C° 0 mm 2 mps 742 mmHg 79%
    09:00 +30°C° 0 mm 1 mps 742 mmHg 71%
    10:00 +31°C° 0 mm 1 mps 741 mmHg 62%
    11:00 +33°C° 0 mm 1 mps 741 mmHg 54%
    12:00 +34°C° 0 mm 1 mps 740 mmHg 48%
    13:00 +36°C° 0 mm 1 mps 739 mmHg 43%
    14:00 +37°C° 0 mm 1 mps 738 mmHg 37%
    15:00 +36°C° 0 mm 1 mps 738 mmHg 42%
    16:00 +34°C° 0 mm 1 mps 738 mmHg 47%
    17:00 +34°C° 0 mm 2 mps 738 mmHg 52%
    18:00 +31°C° 0 mm 2 mps 739 mmHg 62%
    19:00 +29°C° 0 mm 2 mps 739 mmHg 72%
    20:00 +27°C° 0 mm 2 mps 740 mmHg 82%
    21:00 +27°C° 0 mm 2 mps 740 mmHg 85%
    22:00 +26°C° 0 mm 1 mps 740 mmHg 89%
    23:00 +26°C° 0 mm 1 mps 740 mmHg 92%

    23 January, Wednesday

    Time Temperature Precipitation Wind Pressure Humidity
    00:00 +25°C° 0 mm 1 mps 740 mmHg 94%
    01:00 +25°C° 0 mm 1 mps 740 mmHg 95%
    02:00 +25°C° 0 mm 1 mps 739 mmHg 96%
    03:00 +25°C° 0 mm 1 mps 739 mmHg 96%
    04:00 +25°C° 0 mm 1 mps 740 mmHg 95%
    05:00 +25°C° 0 mm 1 mps 740 mmHg 94%
    06:00 +26°C° 0 mm 1 mps 740 mmHg 88%
    07:00 +28°C° 0 mm 1 mps 741 mmHg 81%
    08:00 +29°C° 0 mm 1 mps 741 mmHg 74%
    09:00 +31°C° 0 mm 1 mps 741 mmHg 64%
    10:00 +34°C° 0 mm 1 mps 741 mmHg 54%
    11:00 +36°C° 0 mm 1 mps 740 mmHg 44%
    12:00 +37°C° 0 mm 1 mps 740 mmHg 39%
    13:00 +39°C° 0 mm 1 mps 739 mmHg 35%
    14:00 +40°C° 0 mm 1 mps 738 mmHg 30%
    15:00 +37°C° 0 mm 1 mps 738 mmHg 37%
    16:00 +35°C° 0 mm 1 mps 738 mmHg 43%
    17:00 +33°C° 0 mm 1 mps 738 mmHg 50%
    18:00 +31°C° 0.1 mm 2 mps 738 mmHg 61%
    19:00 +29°C° 0.1 mm 2 mps 739 mmHg 72%
    20:00 +27°C° 0.1 mm 2 mps 740 mmHg 83%
    21:00 +27°C° 0 mm 2 mps 740 mmHg 86%
    22:00 +26°C° 0 mm 1 mps 740 mmHg 88%
    23:00 +26°C° 0 mm 1 mps 740 mmHg 90%

    24 January, Thursday

    Time Temperature Precipitation Wind Pressure Humidity
    00:00 +26°C° 0 mm 1 mps 739 mmHg 92%
    01:00 +25°C° 0 mm 1 mps 739 mmHg 94%
    02:00 +25°C° 0 mm 1 mps 739 mmHg 95%
    03:00 +25°C° 0.1 mm 1 mps 739 mmHg 96%
    04:00 +25°C° 0.1 mm 1 mps 739 mmHg 97%
    05:00 +22°C° 0.1 mm 0 mps 739 mmHg 98%
    06:00 +26°C° 0 mm 1 mps 739 mmHg 91%
    07:00 +27°C° 0 mm 1 mps 740 mmHg 84%
    08:00 +29°C° 0 mm 1 mps 741 mmHg 77%
    09:00 +31°C° 0.1 mm 1 mps 740 mmHg 68%
    10:00 +33°C° 0.1 mm 1 mps 740 mmHg 58%
    11:00 +35°C° 0.1 mm 1 mps 740 mmHg 48%
    12:00 +35°C° 0.3 mm 1 mps 739 mmHg 48%
    13:00 +36°C° 0.3 mm 2 mps 738 mmHg 48%
    14:00 +36°C° 0.3 mm 2 mps 737 mmHg 48%
    15:00 +35°C° 0.2 mm 2 mps 737 mmHg 52%
    16:00 +34°C° 0.2 mm 2 mps 737 mmHg 56%
    17:00 +32°C° 0.2 mm 2 mps 737 mmHg 61%
    18:00 +30°C° 0.3 mm 2 mps 738 mmHg 69%
    19:00 +28°C° 0.3 mm 2 mps 739 mmHg 78%
    20:00 +27°C° 0.3 mm 2 mps 739 mmHg 86%
    21:00 +26°C° 0 mm 1 mps 739 mmHg 88%
    22:00 +26°C° 0 mm 1 mps 740 mmHg 89%
    23:00 +26°C° 0 mm 1 mps 740 mmHg 90%
    Show more